Flag for U.S.A. Weather past 2 weeks in Casper, Wyoming, U.S.A.

Now
46 °F

Clear.


Feels Like: 40 °F
Forecast: 32 / 43 °F
Wind: 13 mph from Southwest

Location: Natrona County International Airport

Current Time: Jan 27, 2015 at 7:01:07 PM

Latest Report: Jan 27, 2015 at 5:53 PM


Visibility: 10 mi

Pressure: 29.97 "Hg

Humidity: 50%

Dew point: 28 °F

Location of CasperLocation

Historic Weather in Casper — Graph

°F

Casper temperature yesterday

Maximum temperature yesterday: 53 °F (at 12:53 PM)
Minimum temperature yesterday: 39 °F (at 2:53 AM)
Average temperature yesterday: 46 °F

Past Weeks' High & Low Weather Summary

 TemperatureHumidityPressure
High58 °F (Jan 27, 12:53 PM)96% (Jan 24, 8:53 PM)30.51 "Hg (Jan 24, 8:53 PM)
Low2 °F (Jan 13, 5:04 AM)28% (Jan 27, 12:53 PM)29.81 "Hg (Jan 16, 1:53 PM)
Average32 °F63%30.20 "Hg
* Reported Jan 12 5:53 PM — Jan 27 5:53 PM, Casper, Weather by CustomWeather, © 2014

Note: Actual official high and low records may vary slightly from our data, if they occured in-between our weather recording intervals... More about our weather records

Advertising

Casper weather history for previous 24 hours

 ConditionsComfort  
Time TempWeatherWind HumidityBarometerVisibility
5:53 PM
Jan 27
46 °FClear.13 mph50%29.97 "Hg10 mi
4:53 PM50 °FSunny.20 mph41%29.95 "Hg10 mi
3:53 PM53 °FSunny.21 mph37%29.94 "Hg10 mi
2:53 PM52 °FSunny.16 mph40%29.96 "Hg10 mi
1:53 PM58 °FSunny.21 mph30%29.94 "Hg10 mi
12:53 PM58 °FSunny.25 mph28%29.94 "Hg10 mi
11:53 AM55 °FSunny.22 mph33%30.01 "Hg10 mi
10:53 AM53 °FSunny.24 mph37%30.03 "Hg10 mi
9:53 AM52 °FSunny.20 mph35%30.06 "Hg10 mi
8:53 AM48 °FSunny.28 mph41%30.08 "Hg10 mi
7:53 AM46 °FSunny.28 mph42%30.07 "Hg10 mi
6:53 AM44 °FClear.18 mph45%30.06 "Hg10 mi
5:53 AM45 °FClear.6 mph44%30.07 "Hg10 mi
4:53 AM44 °FClear.18 mph45%30.08 "Hg10 mi
3:53 AM44 °FClear.22 mph45%30.07 "Hg10 mi
2:53 AM45 °FClear.23 mph44%30.05 "Hg10 mi
1:53 AM45 °FClear.18 mph42%30.07 "Hg10 mi
12:53 AM45 °FClear.18 mph44%30.09 "Hg10 mi
11:53 PM
Jan 26
44 °FClear.9 mph45%30.11 "Hg10 mi
10:53 PM46 °FClear.15 mph44%30.11 "Hg10 mi
9:53 PM44 °FClear.18 mph49%30.12 "Hg10 mi
8:53 PM42 °FClear.7 mph53%30.16 "Hg10 mi
7:53 PM44 °FClear.13 mph51%30.15 "Hg10 mi
Weather by CustomWeather, © 2014

See weather overviewHow to use our weather pages